Neijiang Gaoxin

operational
NORAD ID: 63985 Int'l Des: NNA 2025-100 Owner: GUOX/ZJLAB Country: CN
LEOCIRCULARRETROGRADESSO

关于 Neijiang Gaoxin

正在加载描述...

实时位置

正在加载3D地球...

即将过境

高度历史

Altitude vs Time

uPlot chart will show altitude changes over time

两行轨道根数

1 63985U 25100D 26062.02825428 .00014751 00000-0 47718-3 0 9994
2 63985 97.3753 138.7122 0005889 303.0432 57.0244 15.32144761 44594
Epoch: Mar 3, 2026 • Age: 29 hours

当前状态

高度 484.3 km
速度 7.63 km/s
星下点 63.28°N, 91.79°E
发射日期 May 14, 2025
运行时间 0.8 years
类型 other

技术详情

分类 Payload
质量 50.00 kg
干质量 50.00 kg
总质量 50.00 kg
长度 0.30 m
直径 0.30 m
跨度 0.30 m
形状 Box + 2 pan
制造商 GUOX
平台类型 XSD
阶段状态 In Orbit
所有者/国家 GUOX/ZJLAB/CN

大型星座

Loading constellations...